| time (UTC) | temp F | wind direction | speed MPH | gust MPH | rain 1hr in | rain 24hr in | rain mn in | humidity % | barometer mb |
| 20260509045133 | 45 | 120 | 1.0 | 1.0 | 0.00 | 0.00 | 0.00 | 77 | 4090.1 |
| 20260509044630 | 46 | 121 | 0.0 | 0.0 | 0.00 | 0.00 | 0.00 | 76 | 4090.1 |
| 20260509044128 | 46 | 121 | 0.0 | 0.0 | 0.00 | 0.00 | 0.00 | 74 | 4090.5 |
| 20260509043624 | 46 | 129 | 0.0 | 1.0 | 0.00 | 0.00 | 0.00 | 75 | 4090.5 |
| 20260509043120 | 46 | 125 | 0.0 | 0.0 | 0.00 | 0.00 | 0.00 | 74 | 4090.5 |
| 20260509042617 | 46 | 122 | 1.0 | 2.0 | 0.00 | 0.00 | 0.00 | 74 | 4090.5 |
| 20260509042112 | 45 | 109 | 0.0 | 0.0 | 0.00 | 0.00 | 0.00 | 76 | 4090.5 |
| 20260509041609 | 45 | 109 | 0.0 | 0.0 | 0.00 | 0.00 | 0.00 | 76 | 4090.8 |
| 20260509041107 | 45 | 109 | 0.0 | 0.0 | 0.00 | 0.00 | 0.00 | 77 | 4090.8 |
| 20260509040605 | 45 | 109 | 0.0 | 0.0 | 0.00 | 0.00 | 0.00 | 77 | 4090.8 |
| 20260509035558 | 45 | 109 | 1.0 | 1.0 | 0.00 | 0.00 | 0.00 | 75 | 4090.8 |
| 20260509035055 | 45 | 108 | 0.0 | 0.0 | 0.00 | 0.00 | 0.00 | 76 | 4090.8 |
| 20260509034553 | 45 | 108 | 0.0 | 0.0 | 0.00 | 0.00 | 0.00 | 76 | 4091.1 |
| 20260509034050 | 45 | 108 | 0.0 | 0.0 | 0.00 | 0.00 | 0.00 | 75 | 4091.1 |
| 20260509033547 | 45 | 108 | 0.0 | 0.0 | 0.00 | 0.00 | 0.00 | 75 | 4091.1 |
| 20260509033044 | 45 | 119 | 2.0 | 3.0 | 0.00 | 0.00 | 0.00 | 73 | 4091.1 |
| 20260509032541 | 45 | 121 | 0.0 | 0.0 | 0.00 | 0.00 | 0.00 | 74 | 4091.1 |
| 20260509032038 | 45 | 121 | 1.0 | 2.0 | 0.00 | 0.00 | 0.00 | 73 | 4091.1 |
| 20260509031536 | 45 | 118 | 1.0 | 2.0 | 0.00 | 0.00 | 0.00 | 72 | 4091.5 |
| 20260509031033 | 45 | 121 | 0.0 | 0.0 | 0.00 | 0.00 | 0.00 | 75 | 4091.5 |
| 20260509030531 | 45 | 121 | 0.0 | 0.0 | 0.00 | 0.00 | 0.00 | 73 | 4091.5 |
| 20260509030027 | 45 | 120 | 0.0 | 0.0 | 0.00 | 0.00 | 0.00 | 73 | 4091.8 |
| 20260509025523 | 45 | 120 | 0.0 | 0.0 | 0.00 | 0.00 | 0.00 | 72 | 4091.5 |
| 20260509025019 | 45 | 122 | 0.0 | 0.0 | 0.00 | 0.00 | 0.00 | 73 | 4091.5 |
| 20260509024516 | 45 | 126 | 0.0 | 1.0 | 0.00 | 0.00 | 0.00 | 71 | 4091.5 |
| 20260509024012 | 45 | 129 | 0.0 | 0.0 | 0.00 | 0.00 | 0.00 | 73 | 4091.5 |
| 20260509023509 | 45 | 137 | 0.0 | 0.0 | 0.00 | 0.00 | 0.00 | 72 | 4091.5 |
| 20260509023006 | 45 | 139 | 0.0 | 0.0 | 0.00 | 0.00 | 0.00 | 72 | 4091.5 |
| 20260509022503 | 45 | 106 | 1.0 | 1.0 | 0.00 | 0.00 | 0.00 | 73 | 4091.5 |
| 20260509022000 | 45 | 134 | 1.0 | 1.0 | 0.00 | 0.00 | 0.00 | 72 | 4091.5 |
| 20260509021457 | 45 | 117 | 0.0 | 0.0 | 0.00 | 0.00 | 0.00 | 72 | 4091.5 |
| 20260509020954 | 44 | 128 | 0.0 | 0.0 | 0.00 | 0.00 | 0.00 | 73 | 4091.5 |
| 20260509020453 | 44 | 130 | 0.0 | 0.0 | 0.00 | 0.00 | 0.00 | 75 | 4091.5 |
| 20260509015949 | 44 | 131 | 0.0 | 0.0 | 0.00 | 0.00 | 0.00 | 75 | 4091.5 |
| 20260509015448 | 44 | 152 | 0.0 | 0.0 | 0.00 | 0.00 | 0.00 | 77 | 4091.5 |
| 20260509014944 | 43 | 152 | 0.0 | 0.0 | 0.00 | 0.00 | 0.00 | 78 | 4091.5 |
| 20260509014441 | 43 | 152 | 0.0 | 0.0 | 0.00 | 0.00 | 0.00 | 80 | 4091.5 |
| 20260509013937 | 43 | 152 | 0.0 | 0.0 | 0.00 | 0.00 | 0.00 | 81 | 4091.5 |
| 20260509013435 | 43 | 152 | 0.0 | 0.0 | 0.00 | 0.00 | 0.00 | 81 | 4091.5 |
| 20260509012930 | 43 | 152 | 0.0 | 0.0 | 0.00 | 0.00 | 0.00 | 80 | 4091.5 |
| 20260509012427 | 43 | 152 | 0.0 | 0.0 | 0.00 | 0.00 | 0.00 | 79 | 4091.5 |
| 20260509011924 | 44 | 152 | 0.0 | 0.0 | 0.00 | 0.00 | 0.00 | 78 | 4091.5 |
| 20260509011421 | 44 | 152 | 0.0 | 0.0 | 0.00 | 0.00 | 0.00 | 77 | 4091.5 |
| 20260509010919 | 44 | 152 | 0.0 | 0.0 | 0.00 | 0.00 | 0.00 | 76 | 4091.5 |
| 20260509010416 | 44 | 152 | 0.0 | 0.0 | 0.00 | 0.00 | 0.00 | 76 | 4091.5 |
| 20260509005913 | 45 | 152 | 0.0 | 0.0 | 0.00 | 0.00 | 0.00 | 75 | 4091.5 |
| 20260509005411 | 45 | 153 | 0.0 | 0.0 | 0.00 | 0.00 | 0.00 | 76 | 4091.5 |
| 20260509004911 | 46 | 154 | 0.0 | 0.0 | 0.00 | 0.00 | 0.00 | 75 | 4091.5 |
| 20260509004408 | 46 | 154 | 0.0 | 0.0 | 0.00 | 0.00 | 0.00 | 74 | 4091.5 |
| 20260509003906 | 46 | 154 | 0.0 | 0.0 | 0.00 | 0.00 | 0.00 | 74 | 4091.5 |
| 20260509003403 | 47 | 164 | 0.0 | 0.0 | 0.00 | 0.00 | 0.00 | 74 | 4091.5 |
| 20260509002900 | 47 | 176 | 0.0 | 0.0 | 0.00 | 0.00 | 0.00 | 76 | 4091.5 |
| 20260509002358 | 47 | 177 | 1.0 | 2.0 | 0.00 | 0.00 | 0.00 | 76 | 4091.5 |
| 20260509001855 | 47 | 178 | 0.0 | 0.0 | 0.00 | 0.00 | 0.00 | 74 | 4091.5 |
| 20260509001351 | 48 | 117 | 3.0 | 3.0 | 0.00 | 0.00 | 0.00 | 78 | 4091.5 |
| 20260509000848 | 48 | 112 | 0.0 | 0.0 | 0.00 | 0.00 | 0.00 | 71 | 4091.5 |
| 20260509000348 | 48 | 113 | 0.0 | 0.0 | 0.00 | 0.00 | 0.00 | 75 | 4091.5 |
| 20260508235842 | 51 | 112 | 1.0 | 2.0 | 0.00 | 0.00 | 0.00 | 71 | 4091.5 |
| 20260508235339 | 51 | 52 | 0.0 | 0.0 | 0.00 | 0.00 | 0.00 | 60 | 4091.5 |
| 20260508234836 | 51 | 51 | 0.0 | 0.0 | 0.00 | 0.00 | 0.00 | 60 | 4091.8 |
| 20260508234333 | 51 | 20 | 1.0 | 2.0 | 0.00 | 0.00 | 0.00 | 59 | 4091.5 |
| 20260508233831 | 50 | 36 | 0.0 | 0.0 | 0.00 | 0.00 | 0.00 | 61 | 4091.8 |
| 20260508233330 | 50 | 37 | 0.0 | 0.0 | 0.00 | 0.00 | 0.00 | 62 | 4091.8 |
| 20260508232827 | 51 | 44 | 0.0 | 1.0 | 0.00 | 0.00 | 0.00 | 64 | 4091.8 |
| 20260508232323 | 51 | 327 | 1.0 | 1.0 | 0.00 | 0.00 | 0.00 | 63 | 4091.8 |
| 20260508231822 | 51 | 354 | 0.0 | 0.0 | 0.00 | 0.00 | 0.00 | 62 | 4091.8 |
| 20260508231317 | 51 | 13 | 0.0 | 1.0 | 0.00 | 0.00 | 0.00 | 63 | 4091.8 |
| 20260508230814 | 51 | 52 | 3.0 | 3.0 | 0.00 | 0.00 | 0.00 | 63 | 4091.8 |
| 20260508230311 | 51 | 355 | 2.0 | 3.0 | 0.00 | 0.00 | 0.00 | 62 | 4091.8 |
| 20260508225809 | 51 | 316 | 1.0 | 2.0 | 0.00 | 0.00 | 0.00 | 67 | 4091.8 |
| 20260508225306 | 51 | 337 | 0.0 | 0.0 | 0.00 | 0.00 | 0.00 | 67 | 4092.1 |
| 20260508224803 | 51 | 5 | 0.0 | 1.0 | 0.00 | 0.00 | 0.00 | 67 | 4092.1 |
| 20260508224300 | 52 | 44 | 1.0 | 2.0 | 0.00 | 0.00 | 0.00 | 65 | 4091.8 |
| 20260508223758 | 52 | 19 | 0.0 | 1.0 | 0.00 | 0.00 | 0.00 | 63 | 4091.8 |
| 20260508223255 | 53 | 356 | 1.0 | 2.0 | 0.00 | 0.00 | 0.00 | 61 | 4092.1 |
| 20260508222752 | 53 | 16 | 1.0 | 1.0 | 0.00 | 0.00 | 0.00 | 61 | 4092.1 |
| 20260508222249 | 53 | 57 | 0.0 | 1.0 | 0.00 | 0.00 | 0.00 | 61 | 4091.8 |
| 20260508221746 | 53 | 29 | 1.0 | 2.0 | 0.00 | 0.00 | 0.00 | 60 | 4092.1 |
| 20260508221242 | 54 | 111 | 1.0 | 2.0 | 0.00 | 0.00 | 0.00 | 60 | 4092.1 |
| 20260508220738 | 53 | 66 | 0.0 | 1.0 | 0.00 | 0.00 | 0.00 | 60 | 4092.1 |
| 20260508220234 | 53 | 339 | 1.0 | 1.0 | 0.00 | 0.00 | 0.00 | 59 | 4092.5 |
| 20260508215731 | 53 | 347 | 2.0 | 2.0 | 0.00 | 0.00 | 0.00 | 58 | 4092.5 |
| 20260508215227 | 54 | 325 | 1.0 | 2.0 | 0.00 | 0.00 | 0.00 | 59 | 4092.1 |
| 20260508214725 | 55 | 161 | 0.0 | 1.0 | 0.00 | 0.00 | 0.00 | 60 | 4092.5 |
| 20260508214222 | 54 | 208 | 0.0 | 1.0 | 0.00 | 0.00 | 0.00 | 60 | 4092.5 |
| 20260508213718 | 54 | 12 | 0.0 | 0.0 | 0.00 | 0.00 | 0.00 | 61 | 4092.5 |
| 20260508213215 | 53 | 301 | 0.0 | 1.0 | 0.00 | 0.00 | 0.00 | 63 | 4092.5 |
| 20260508212712 | 52 | 170 | 1.0 | 2.0 | 0.00 | 0.00 | 0.00 | 64 | 4092.1 |
| 20260508212208 | 53 | 318 | 1.0 | 1.0 | 0.00 | 0.00 | 0.00 | 66 | 4092.5 |
| 20260508211703 | 52 | 62 | 0.0 | 0.0 | 0.00 | 0.00 | 0.00 | 67 | 4092.5 |
| 20260508211159 | 52 | 293 | 1.0 | 1.0 | 0.00 | 0.00 | 0.00 | 68 | 4092.5 |
| 20260508210657 | 52 | 75 | 1.0 | 1.0 | 0.00 | 0.00 | 0.00 | 70 | 4092.5 |
| 20260508210154 | 51 | 55 | 1.0 | 2.0 | 0.00 | 0.00 | 0.00 | 72 | 4092.5 |
| 20260508205651 | 52 | 334 | 1.0 | 1.0 | 0.00 | 0.00 | 0.00 | 75 | 4092.8 |
| 20260508205147 | 51 | 140 | 1.0 | 1.0 | 0.00 | 0.00 | 0.00 | 77 | 4092.8 |
| 20260508204643 | 51 | 323 | 1.0 | 1.0 | 0.00 | 0.00 | 0.00 | 78 | 4092.5 |
| 20260508204140 | 51 | 75 | 1.0 | 2.0 | 0.00 | 0.00 | 0.00 | 79 | 4092.8 |
| 20260508203636 | 50 | 90 | 1.0 | 1.0 | 0.00 | 0.00 | 0.00 | 79 | 4092.5 |
| 20260508203132 | 50 | 123 | 1.0 | 1.0 | 0.00 | 0.00 | 0.00 | 80 | 4092.5 |
| 20260508202629 | 49 | 293 | 1.0 | 1.0 | 0.00 | 0.00 | 0.00 | 83 | 4092.8 |
| 20260508202126 | 50 | 343 | 2.0 | 5.0 | 0.00 | 0.00 | 0.00 | 81 | 4092.8 |
| 20260508201623 | 51 | 52 | 0.0 | 1.0 | 0.00 | 0.00 | 0.00 | 79 | 4092.8 |
| 20260508201119 | 50 | 234 | 1.0 | 1.0 | 0.00 | 0.00 | 0.00 | 81 | 4092.8 |
| 20260508200616 | 51 | 90 | 1.0 | 1.0 | 0.00 | 0.00 | 0.00 | 75 | 4093.2 |
| 20260508200112 | 50 | 236 | 1.0 | 2.0 | 0.00 | 0.00 | 0.00 | 79 | 4093.2 |
| 20260508195609 | 51 | 50 | 3.0 | 3.0 | 0.00 | 0.00 | 0.00 | 77 | 4093.2 |
| 20260508195105 | 51 | 255 | 1.0 | 2.0 | 0.00 | 0.00 | 0.00 | 80 | 4093.2 |
| 20260508194602 | 51 | 224 | 1.0 | 1.0 | 0.00 | 0.00 | 0.00 | 80 | 4093.5 |
| 20260508194059 | 50 | 216 | 1.0 | 2.0 | 0.00 | 0.00 | 0.00 | 81 | 4093.5 |
| 20260508193555 | 50 | 63 | 3.0 | 3.0 | 0.00 | 0.00 | 0.00 | 80 | 4093.5 |
| 20260508193053 | 50 | 221 | 3.0 | 3.0 | 0.00 | 0.00 | 0.00 | 80 | 4093.5 |
| 20260508192549 | 51 | 82 | 1.0 | 1.0 | 0.00 | 0.00 | 0.00 | 77 | 4093.5 |
| 20260508192046 | 52 | 198 | 2.0 | 2.0 | 0.00 | 0.00 | 0.00 | 76 | 4093.5 |
| 20260508191543 | 52 | 233 | 0.0 | 1.0 | 0.00 | 0.00 | 0.00 | 77 | 4093.8 |
| 20260508191040 | 51 | 191 | 2.0 | 3.0 | 0.00 | 0.00 | 0.00 | 78 | 4093.8 |
| 20260508190537 | 51 | 282 | 1.0 | 2.0 | 0.00 | 0.00 | 0.00 | 79 | 4093.8 |
| 20260508190033 | 51 | 203 | 2.0 | 3.0 | 0.00 | 0.00 | 0.00 | 77 | 4093.8 |
| 20260508185531 | 51 | 162 | 0.0 | 1.0 | 0.00 | 0.00 | 0.00 | 76 | 4093.8 |
| 20260508185028 | 51 | 217 | 0.0 | 0.0 | 0.00 | 0.00 | 0.00 | 76 | 4093.8 |
| 20260508184525 | 51 | 163 | 1.0 | 1.0 | 0.00 | 0.00 | 0.00 | 78 | 4093.8 |
| 20260508184022 | 51 | 223 | 3.0 | 3.0 | 0.00 | 0.00 | 0.00 | 77 | 4093.8 |
| 20260508183519 | 51 | 204 | 2.0 | 2.0 | 0.00 | 0.00 | 0.00 | 77 | 4093.8 |
| 20260508183015 | 51 | 36 | 2.0 | 2.0 | 0.00 | 0.00 | 0.00 | 76 | 4093.8 |
| 20260508182511 | 50 | 157 | 2.0 | 2.0 | 0.00 | 0.00 | 0.00 | 78 | 4093.8 |
| 20260508182008 | 50 | 225 | 3.0 | 3.0 | 0.00 | 0.00 | 0.00 | 80 | 4093.8 |
| 20260508181503 | 50 | 230 | 3.0 | 3.0 | 0.00 | 0.00 | 0.00 | 82 | 4093.8 |
| 20260508181001 | 49 | 159 | 1.0 | 3.0 | 0.00 | 0.00 | 0.00 | 80 | 4093.8 |
| 20260508180457 | 49 | 219 | 1.0 | 2.0 | 0.00 | 0.00 | 0.00 | 82 | 4093.8 |
| 20260508175953 | 49 | 135 | 2.0 | 3.0 | 0.00 | 0.00 | 0.00 | 82 | 4094.2 |
| 20260508175450 | 49 | 59 | 0.0 | 0.0 | 0.00 | 0.00 | 0.00 | 82 | 4094.2 |
| 20260508174948 | 50 | 50 | 0.0 | 0.0 | 0.00 | 0.00 | 0.00 | 82 | 4094.2 |
| 20260508174445 | 50 | 240 | 2.0 | 3.0 | 0.00 | 0.00 | 0.00 | 86 | 4094.2 |
| 20260508173942 | 50 | 138 | 1.0 | 1.0 | 0.00 | 0.00 | 0.00 | 84 | 4094.2 |
| 20260508173439 | 49 | 231 | 3.0 | 5.0 | 0.00 | 0.00 | 0.00 | 83 | 4094.2 |
| 20260508172935 | 50 | 226 | 2.0 | 2.0 | 0.00 | 0.00 | 0.00 | 82 | 4094.5 |
| 20260508172433 | 49 | 134 | 1.0 | 1.0 | 0.00 | 0.00 | 0.00 | 83 | 4094.5 |
| 20260508171929 | 48 | 84 | 0.0 | 0.0 | 0.00 | 0.00 | 0.00 | 82 | 4094.5 |
| 20260508171425 | 48 | 165 | 1.0 | 1.0 | 0.00 | 0.00 | 0.00 | 85 | 4094.5 |
| 20260508170922 | 48 | 143 | 0.0 | 1.0 | 0.00 | 0.00 | 0.00 | 83 | 4094.2 |
| 20260508170419 | 49 | 189 | 1.0 | 3.0 | 0.00 | 0.00 | 0.00 | 81 | 4094.2 |
| 20260508165915 | 49 | 113 | 0.0 | 1.0 | 0.00 | 0.00 | 0.00 | 82 | 4094.5 |
| 20260508165414 | 48 | 78 | 1.0 | 2.0 | 0.00 | 0.00 | 0.00 | 82 | 4094.5 |
| 20260508164909 | 48 | 225 | 2.0 | 2.0 | 0.00 | 0.00 | 0.00 | 83 | 4094.5 |
| 20260508164407 | 47 | 16 | 1.0 | 2.0 | 0.00 | 0.00 | 0.00 | 83 | 4094.9 |
| 20260508163904 | 46 | 49 | 1.0 | 1.0 | 0.00 | 0.00 | 0.00 | 85 | 4094.9 |
| 20260508163402 | 46 | 327 | 3.0 | 3.0 | 0.00 | 0.00 | 0.00 | 84 | 4094.9 |
| 20260508162857 | 46 | 29 | 2.0 | 3.0 | 0.00 | 0.00 | 0.00 | 84 | 4094.9 |
| 20260508162354 | 47 | 60 | 2.0 | 2.0 | 0.00 | 0.00 | 0.00 | 83 | 4094.9 |
| 20260508161851 | 46 | 58 | 2.0 | 2.0 | 0.00 | 0.00 | 0.00 | 83 | 4094.9 |
| 20260508161349 | 46 | 70 | 1.0 | 1.0 | 0.00 | 0.00 | 0.00 | 85 | 4094.9 |
| 20260508160846 | 46 | 45 | 2.0 | 3.0 | 0.00 | 0.00 | 0.00 | 85 | 4094.9 |
| 20260508160344 | 45 | 350 | 3.0 | 5.0 | 0.00 | 0.00 | 0.00 | 85 | 4094.9 |
| 20260508155840 | 45 | 359 | 2.0 | 2.0 | 0.00 | 0.00 | 0.00 | 85 | 4094.9 |
| 20260508155338 | 46 | 350 | 3.0 | 5.0 | 0.00 | 0.00 | 0.00 | 84 | 4095.2 |
| 20260508154834 | 45 | 349 | 5.0 | 6.0 | 0.00 | 0.00 | 0.00 | 84 | 4095.2 |
| 20260508154332 | 45 | 351 | 3.0 | 3.0 | 0.00 | 0.00 | 0.00 | 85 | 4095.2 |
| 20260508153828 | 46 | 25 | 2.0 | 2.0 | 0.00 | 0.00 | 0.00 | 85 | 4095.5 |
| 20260508153326 | 45 | 85 | 1.0 | 1.0 | 0.00 | 0.00 | 0.00 | 86 | 4095.2 |
| 20260508152821 | 45 | 356 | 3.0 | 5.0 | 0.00 | 0.00 | 0.00 | 84 | 4095.2 |
| 20260508152318 | 46 | 357 | 3.0 | 5.0 | 0.00 | 0.00 | 0.00 | 84 | 4095.2 |
| 20260508151815 | 46 | 90 | 0.0 | 1.0 | 0.00 | 0.00 | 0.00 | 84 | 4095.5 |
| 20260508151312 | 46 | 109 | 0.0 | 1.0 | 0.00 | 0.00 | 0.00 | 84 | 4095.5 |
| 20260508150808 | 47 | 200 | 2.0 | 2.0 | 0.00 | 0.00 | 0.00 | 84 | 4095.2 |
| 20260508150305 | 48 | 200 | 2.0 | 3.0 | 0.00 | 0.00 | 0.00 | 82 | 4095.5 |
| 20260508145802 | 48 | 208 | 2.0 | 3.0 | 0.00 | 0.00 | 0.00 | 83 | 4095.5 |
| 20260508145257 | 47 | 179 | 1.0 | 2.0 | 0.00 | 0.00 | 0.00 | 83 | 4095.5 |
| 20260508144754 | 46 | 219 | 2.0 | 2.0 | 0.00 | 0.00 | 0.00 | 85 | 4095.5 |
| 20260508144252 | 47 | 217 | 0.0 | 1.0 | 0.00 | 0.00 | 0.00 | 86 | 4095.5 |
| 20260508143749 | 47 | 202 | 2.0 | 2.0 | 0.00 | 0.00 | 0.00 | 84 | 4095.5 |
| 20260508143246 | 46 | 213 | 0.0 | 0.0 | 0.00 | 0.00 | 0.00 | 83 | 4095.5 |
| 20260508142742 | 44 | 219 | 1.0 | 2.0 | 0.00 | 0.00 | 0.00 | 84 | 4095.5 |
| 20260508142239 | 44 | 217 | 3.0 | 3.0 | 0.00 | 0.00 | 0.00 | 81 | 4095.5 |
| 20260508141736 | 44 | 215 | 2.0 | 2.0 | 0.00 | 0.00 | 0.00 | 82 | 4095.5 |
| 20260508141234 | 44 | 214 | 3.0 | 3.0 | 0.00 | 0.00 | 0.00 | 82 | 4095.9 |
| 20260508140731 | 44 | 193 | 2.0 | 3.0 | 0.00 | 0.00 | 0.00 | 83 | 4095.9 |
| 20260508140227 | 43 | 192 | 1.0 | 1.0 | 0.00 | 0.00 | 0.00 | 86 | 4095.9 |
| 20260508135723 | 43 | 191 | 2.0 | 2.0 | 0.00 | 0.00 | 0.00 | 88 | 4095.9 |
| 20260508135219 | 43 | 191 | 1.0 | 1.0 | 0.00 | 0.00 | 0.00 | 88 | 4095.9 |
| 20260508134710 | 43 | 191 | 1.0 | 1.0 | 0.00 | 0.00 | 0.00 | 88 | 4095.5 |
| 20260508134207 | 43 | 191 | 1.0 | 2.0 | 0.00 | 0.00 | 0.00 | 87 | 4095.9 |
| 20260508133704 | 42 | 191 | 1.0 | 1.0 | 0.00 | 0.00 | 0.00 | 88 | 4095.9 |
| 20260508133201 | 42 | 191 | 2.0 | 2.0 | 0.00 | 0.00 | 0.00 | 88 | 4095.9 |
| 20260508132659 | 42 | 191 | 1.0 | 1.0 | 0.00 | 0.00 | 0.00 | 88 | 4095.9 |
| 20260508132156 | 42 | 191 | 1.0 | 1.0 | 0.00 | 0.00 | 0.00 | 91 | 4095.9 |
| 20260508131651 | 41 | 191 | 0.0 | 0.0 | 0.00 | 0.00 | 0.00 | 93 | 4095.9 |
| 20260508131148 | 41 | 191 | 1.0 | 1.0 | 0.00 | 0.00 | 0.00 | 92 | 4095.9 |
| 20260508130645 | 41 | 191 | 2.0 | 2.0 | 0.00 | 0.00 | 0.00 | 92 | 4095.9 |
| 20260508130142 | 41 | 192 | 0.0 | 1.0 | 0.00 | 0.00 | 0.00 | 92 | 4095.9 |
| 20260508125637 | 40 | 192 | 2.0 | 2.0 | 0.00 | 0.00 | 0.00 | 93 | 4095.9 |
| 20260508125134 | 40 | 193 | 2.0 | 2.0 | 0.00 | 0.00 | 0.00 | 94 | 4095.9 |
| 20260508124632 | 40 | 194 | 1.0 | 2.0 | 0.00 | 0.00 | 0.00 | 94 | 4095.9 |
| 20260508124129 | 40 | 194 | 0.0 | 0.0 | 0.00 | 0.00 | 0.00 | 95 | 4095.9 |
| 20260508123628 | 40 | 194 | 1.0 | 1.0 | 0.00 | 0.00 | 0.00 | 95 | 4096.2 |
| 20260508123125 | 40 | 194 | 1.0 | 1.0 | 0.00 | 0.00 | 0.00 | 95 | 4095.9 |
| 20260508122621 | 40 | 194 | 1.0 | 1.0 | 0.00 | 0.00 | 0.00 | 96 | 4095.9 |
| 20260508122118 | 39 | 194 | 1.0 | 1.0 | 0.00 | 0.00 | 0.00 | 96 | 4095.9 |
| 20260508121617 | 39 | 194 | 1.0 | 1.0 | 0.00 | 0.00 | 0.00 | 95 | 4095.9 |
| 20260508121114 | 39 | 194 | 0.0 | 0.0 | 0.00 | 0.00 | 0.00 | 96 | 4095.9 |
| 20260508120611 | 39 | 194 | 0.0 | 0.0 | 0.00 | 0.00 | 0.00 | 96 | 4095.9 |
| 20260508120110 | 39 | 194 | 1.0 | 1.0 | 0.00 | 0.00 | 0.00 | 96 | 4095.9 |
| 20260508115607 | 38 | 194 | 1.0 | 1.0 | 0.00 | 0.00 | 0.00 | 98 | 4095.9 |
| 20260508115103 | 38 | 194 | 1.0 | 1.0 | 0.00 | 0.00 | 0.00 | 98 | 4095.9 |
| 20260508114601 | 38 | 216 | 0.0 | 1.0 | 0.00 | 0.00 | 0.00 | 99 | 4095.9 |
| 20260508114056 | 37 | 217 | 0.0 | 0.0 | 0.00 | 0.00 | 0.00 | 99 | 4095.9 |
| 20260508113554 | 37 | 217 | 0.0 | 0.0 | 0.00 | 0.00 | 0.00 | 99 | 4096.2 |
| 20260508113052 | 36 | 217 | 0.0 | 0.0 | 0.00 | 0.00 | 0.00 | 99 | 4095.9 |
| 20260508112548 | 35 | 217 | 0.0 | 0.0 | 0.00 | 0.00 | 0.00 | 99 | 4095.9 |
| 20260508112045 | 35 | 217 | 0.0 | 0.0 | 0.00 | 0.00 | 0.00 | 99 | 4095.9 |
| 20260508111542 | 34 | 217 | 0.0 | 0.0 | 0.00 | 0.00 | 0.00 | 99 | 4095.9 |
| 20260508111039 | 34 | 217 | 0.0 | 0.0 | 0.00 | 0.00 | 0.00 | 99 | 4095.9 |
| 20260508110537 | 33 | 217 | 0.0 | 0.0 | 0.00 | 0.00 | 0.00 | 99 | 4095.9 |
| 20260508110032 | 33 | 217 | 0.0 | 0.0 | 0.00 | 0.00 | 0.00 | 99 | 4095.9 |
| 20260508105527 | 33 | 217 | 0.0 | 0.0 | 0.00 | 0.00 | 0.00 | 99 | 4095.9 |
| 20260508105025 | 33 | 217 | 0.0 | 0.0 | 0.00 | 0.00 | 0.00 | 99 | 4095.9 |
| 20260508104523 | 32 | 216 | 1.0 | 1.0 | 0.00 | 0.00 | 0.00 | 99 | 4095.9 |
| 20260508104019 | 32 | 216 | 0.0 | 0.0 | 0.00 | 0.00 | 0.00 | 99 | 4095.9 |
| 20260508103516 | 32 | 217 | 1.0 | 1.0 | 0.00 | 0.00 | 0.00 | 99 | 4095.9 |
| 20260508103013 | 32 | 217 | 1.0 | 1.0 | 0.00 | 0.00 | 0.00 | 99 | 4095.9 |
| 20260508102511 | 32 | 217 | 0.0 | 0.0 | 0.00 | 0.00 | 0.00 | 99 | 4095.9 |
| 20260508102009 | 32 | 217 | 1.0 | 1.0 | 0.00 | 0.00 | 0.00 | 99 | 4095.9 |
| 20260508101506 | 32 | 217 | 1.0 | 1.0 | 0.00 | 0.00 | 0.00 | 99 | 4095.9 |
| 20260508101003 | 32 | 217 | 0.0 | 0.0 | 0.00 | 0.00 | 0.00 | 99 | 4095.9 |
| 20260508100501 | 33 | 217 | 0.0 | 1.0 | 0.00 | 0.00 | 0.00 | 99 | 4095.9 |
| 20260508095957 | 34 | 217 | 0.0 | 0.0 | 0.00 | 0.00 | 0.00 | 98 | 4095.9 |
| 20260508095455 | 34 | 216 | 0.0 | 0.0 | 0.00 | 0.00 | 0.00 | 97 | 4095.9 |
| 20260508094951 | 35 | 217 | 0.0 | 0.0 | 0.00 | 0.00 | 0.00 | 96 | 4095.9 |
| 20260508094448 | 37 | 218 | 1.0 | 1.0 | 0.00 | 0.00 | 0.00 | 93 | 4095.9 |
| 20260508093945 | 38 | 218 | 4.0 | 5.0 | 0.00 | 0.00 | 0.00 | 94 | 4095.9 |
| 20260508093442 | 38 | 235 | 5.0 | 5.0 | 0.00 | 0.00 | 0.00 | 95 | 4095.9 |
| 20260508092940 | 38 | 229 | 5.0 | 6.0 | 0.00 | 0.00 | 0.00 | 94 | 4095.9 |
| 20260508092438 | 38 | 234 | 4.0 | 5.0 | 0.00 | 0.00 | 0.00 | 95 | 4095.9 |
| 20260508091936 | 37 | 233 | 5.0 | 6.0 | 0.00 | 0.00 | 0.00 | 96 | 4095.5 |
| 20260508091432 | 37 | 233 | 3.0 | 3.0 | 0.00 | 0.00 | 0.00 | 96 | 4095.9 |
| 20260508090930 | 38 | 246 | 5.0 | 6.0 | 0.00 | 0.00 | 0.00 | 95 | 4095.9 |
| 20260508090429 | 38 | 228 | 5.0 | 6.0 | 0.00 | 0.00 | 0.00 | 95 | 4095.9 |
| 20260508085923 | 38 | 236 | 8.0 | 8.0 | 0.00 | 0.00 | 0.00 | 95 | 4095.9 |
| 20260508085421 | 38 | 234 | 8.0 | 8.0 | 0.00 | 0.00 | 0.00 | 94 | 4096.2 |
| 20260508084917 | 38 | 233 | 6.0 | 7.0 | 0.00 | 0.00 | 0.00 | 94 | 4095.9 |
| 20260508084414 | 38 | 245 | 7.0 | 8.0 | 0.00 | 0.00 | 0.00 | 94 | 4096.2 |
| 20260508083912 | 38 | 240 | 7.0 | 8.0 | 0.00 | 0.00 | 0.00 | 93 | 4095.9 |
| 20260508083409 | 38 | 238 | 8.0 | 9.0 | 0.00 | 0.00 | 0.00 | 93 | 4095.9 |
| 20260508082908 | 39 | 242 | 8.0 | 9.0 | 0.00 | 0.00 | 0.00 | 91 | 4095.9 |
| 20260508082406 | 39 | 241 | 7.0 | 8.0 | 0.00 | 0.00 | 0.00 | 92 | 4096.2 |
| 20260508081904 | 39 | 228 | 7.0 | 8.0 | 0.00 | 0.00 | 0.00 | 91 | 4095.9 |
| 20260508081401 | 39 | 217 | 6.0 | 7.0 | 0.00 | 0.00 | 0.00 | 91 | 4095.9 |
| 20260508080857 | 39 | 230 | 6.0 | 7.0 | 0.00 | 0.00 | 0.00 | 90 | 4095.9 |
| 20260508080355 | 39 | 213 | 7.0 | 8.0 | 0.00 | 0.00 | 0.00 | 91 | 4095.9 |
| 20260508075851 | 39 | 217 | 6.0 | 7.0 | 0.00 | 0.00 | 0.00 | 90 | 4095.9 |
| 20260508075348 | 39 | 220 | 5.0 | 5.0 | 0.00 | 0.00 | 0.00 | 92 | 4096.2 |
| 20260508074847 | 39 | 220 | 5.0 | 6.0 | 0.00 | 0.00 | 0.00 | 92 | 4096.2 |
| 20260508074343 | 38 | 205 | 5.0 | 5.0 | 0.00 | 0.00 | 0.00 | 93 | 4095.9 |
| 20260508073840 | 38 | 171 | 5.0 | 6.0 | 0.00 | 0.00 | 0.00 | 93 | 4096.2 |
| 20260508073338 | 39 | 188 | 4.0 | 5.0 | 0.00 | 0.00 | 0.00 | 91 | 4095.9 |
| 20260508072835 | 37 | 202 | 6.0 | 7.0 | 0.00 | 0.00 | 0.00 | 91 | 4096.2 |
| 20260508072331 | 33 | 198 | 5.0 | 5.0 | 0.00 | 0.00 | 0.00 | 99 | 4095.9 |
| 20260508071828 | 34 | 176 | 0.0 | 1.0 | 0.00 | 0.00 | 0.00 | 99 | 4095.9 |
| 20260508071327 | 33 | 213 | 1.0 | 1.0 | 0.00 | 0.00 | 0.00 | 99 | 4095.9 |
| 20260508070824 | 33 | 214 | 0.0 | 0.0 | 0.00 | 0.00 | 0.00 | 99 | 4096.2 |
| 20260508070322 | 33 | 214 | 0.0 | 0.0 | 0.00 | 0.00 | 0.00 | 99 | 4096.2 |
| 20260508065819 | 33 | 214 | 0.0 | 0.0 | 0.00 | 0.00 | 0.00 | 99 | 4096.5 |
| 20260508065317 | 33 | 214 | 0.0 | 0.0 | 0.00 | 0.00 | 0.00 | 99 | 4096.5 |
| 20260508064815 | 33 | 214 | 0.0 | 0.0 | 0.00 | 0.00 | 0.00 | 99 | 4096.5 |
| 20260508064312 | 33 | 214 | 0.0 | 0.0 | 0.00 | 0.00 | 0.00 | 99 | 4097.0 |
| 20260508063809 | 33 | 214 | 0.0 | 0.0 | 0.00 | 0.00 | 0.00 | 99 | 4097.0 |
| 20260508063308 | 33 | 214 | 0.0 | 0.0 | 0.00 | 0.00 | 0.00 | 99 | 4097.0 |
| 20260508062804 | 33 | 215 | 0.0 | 0.0 | 0.00 | 0.00 | 0.00 | 99 | 4096.5 |
| 20260508062305 | 34 | 216 | 0.0 | 0.0 | 0.00 | 0.00 | 0.00 | 99 | 4097.0 |
| 20260508061758 | 34 | 210 | 0.0 | 0.0 | 0.00 | 0.00 | 0.00 | 99 | 4097.0 |
| 20260508061256 | 33 | 213 | 0.0 | 0.0 | 0.00 | 0.00 | 0.00 | 99 | 4097.3 |
| 20260508060752 | 33 | 212 | 0.0 | 0.0 | 0.00 | 0.00 | 0.00 | 99 | 4097.3 |
| 20260508060251 | 33 | 212 | 0.0 | 0.0 | 0.00 | 0.00 | 0.00 | 99 | 4097.3 |
| 20260508055745 | 33 | 213 | 1.0 | 1.0 | 0.00 | 0.00 | 0.00 | 99 | 4097.3 |
| 20260508055243 | 34 | 213 | 0.0 | 0.0 | 0.00 | 0.00 | 0.00 | 99 | 4097.3 |
| 20260508054739 | 34 | 212 | 0.0 | 0.0 | 0.00 | 0.00 | 0.00 | 99 | 4097.3 |
| 20260508054237 | 34 | 212 | 0.0 | 0.0 | 0.00 | 0.00 | 0.00 | 99 | 4097.3 |
| 20260508053734 | 34 | 212 | 0.0 | 0.0 | 0.00 | 0.00 | 0.00 | 99 | 4097.3 |
| 20260508053231 | 34 | 212 | 0.0 | 0.0 | 0.00 | 0.00 | 0.00 | 99 | 4097.0 |
| 20260508052728 | 34 | 212 | 0.0 | 0.0 | 0.00 | 0.00 | 0.00 | 99 | 4097.3 |
| 20260508052225 | 33 | 212 | 0.0 | 0.0 | 0.00 | 0.00 | 0.00 | 99 | 4097.3 |
| 20260508051722 | 33 | 212 | 0.0 | 0.0 | 0.00 | 0.00 | 0.00 | 99 | 4097.3 |
| 20260508051217 | 33 | 212 | 0.0 | 0.0 | 0.00 | 0.00 | 0.00 | 99 | 4097.3 |
| 20260508050714 | 33 | 212 | 0.0 | 0.0 | 0.00 | 0.00 | 0.00 | 99 | 4097.3 |
| 20260508050212 | 33 | 212 | 0.0 | 0.0 | 0.00 | 0.00 | 0.00 | 99 | 4097.7 |
| 20260508045706 | 33 | 213 | 0.0 | 0.0 | 0.00 | 0.00 | 0.00 | 99 | 4097.7 |